Find Starlink 36361

NORAD ID: 67900 Int'l Des: 2026-035 Owner: SPXS Country: US Constellation: starlink operational
LEOCIRCULARRETROGRADE

Current View

Loading 3D Globe...

About Starlink 36361

Description loading...

Upcoming Passes

Passes for default location (London). Set your location on the main map for personalized predictions.

Altitude History

Loading altitude history...

Two-Line Element Set

1 67900U 26035X 26146.28220856 .00027093 00000-0 83823-3 0 9998
2 67900 97.2860 79.8571 0000915 101.1265 259.0081 15.33456032 15883
Epoch: May 26, 2026 • Age: 12 hours

Current Status

Altitude 489.4 km
Velocity 7.62 km/s
Sub-Earth Point -60.84°S, 81.04°E
Launch Date Feb 21, 2026
Age 0.2 years
Type internet

Technical Details

Classification Payload
Mass 575.00 kg
Dry Mass 530.00 kg
Total Mass 575.00 kg
Length 0.30 m
Diameter 4.10 m
Span 29.00 m
Shape Box + pan
Manufacturer SPXS
Bus Type Starlink V2MO
Phase Status In Orbit
Owner/State SPXS/US

Most Searched